Location: 3 Angels Observatory
(30.5437°N, 88.5068°W)
Time: 14:17:55
(UTC-05:00)

Amateur Radio Satellites - All Passes

Search period start: 24 July 2014 13:47
Search period end: 25 July 2014 13:47
Location: 3 Angels Observatory, 30.5437°N, 88.5068°W

Satellite Date Start Highest point End Downlink Frequencies (MHz)
Time Altitude Azimuth
Oscar 19 24 Jul 14:03:07 14:08:11 67° 258° (WSW) 14:13:16 437.125 CW, 437.150 USB
Oscar 16 24 Jul 14:31:14 14:35:46 32° 262° (W) 14:40:19 437.025 USB, Beacon 2401.1428
TMSAT-1 24 Jul 14:32:37 14:36:59 27° 70° (ENE) 14:41:22 436.925 FM
SO-50 24 Jul 14:37:19 14:40:40 21° 306° (NW) 14:44:04 436.795 FM
ITAMSAT 1 24 Jul 14:40:49 14:45:59 64° 258° (WSW) 14:51:10 435.822 SSB
Gurwin Techsat 1B 24 Jul 14:52:42 14:57:56 62° 75° (ENE) 15:03:10 435.225 FM
RS-15 24 Jul 14:53:49 15:04:55 65° 300° (WNW) 15:15:47 29.354 - 29.394 USB, Beacon 29.352 USB
KITSAT 1 24 Jul 14:54:13 14:57:20 12° 42° (NE) 15:00:26 435.175 FM
AO-27 24 Jul 14:59:01 15:03:54 40° 261° (W) 15:08:48 436.795 MHz FM
AO-Echo 24 Jul 14:59:10 15:04:02 40° 261° (W) 15:09:01 ?
Uribyol 2 24 Jul 15:02:06 15:06:50 35° 261° (W) 15:11:35 436.500 FM
JAS-1B 24 Jul 15:11:16 15:19:22 80° 257° (WSW) 15:28:55 435.800 - 435.900 CW/SSB
Uosat F 24 Jul 15:15:49 15:18:26 14° 66° (ENE) 15:21:04 435.120 FM
UOSAT-12 24 Jul 15:24:22 15:28:54 79° 116° (ESE) 15:33:33 437.025 FM, 437.400 FM
OPAL 24 Jul 15:54:05 15:57:26 18° 97° (E) 16:00:49 ?
AO-7 24 Jul 15:54:45 16:02:43 51° 68° (ENE) 16:10:41 29.400 - 29.500 MHz
TMSAT-1 24 Jul 16:12:13 16:16:45 29° 263° (W) 16:21:18 436.925 FM
Gurwin Techsat 1B 24 Jul 16:36:25 16:38:12 12° 267° (W) 16:39:58 435.225 FM
KITSAT 1 24 Jul 16:46:13 16:54:16 67° 62° (ENE) 17:02:14 435.175 FM
Uosat F 24 Jul 16:51:50 16:56:44 51° 259° (W) 17:01:39 435.120 FM
Oscar 10/S400 24 Jul 16:57:38 17:15:39 20° 153° (SSE) 17:28:30 145.825 - 145.975 CW/USB, Beacon 145.810 USB
JAS-1B 24 Jul 17:08:25 17:11:17 12° 274° (W) 17:14:16 435.800 - 435.900 CW/SSB
RS-15 24 Jul 17:13:55 17:19:49 15° 325° (NW) 17:25:44 29.354 - 29.394 USB, Beacon 29.352 USB
JAS-2 24 Jul 17:14:56 17:20:48 24° 66° (ENE) 17:26:31 435.800 - 435.900 CW/SSB, 435.910 FM
OPAL 24 Jul 17:31:40 17:36:23 41° 289° (WNW) 17:41:08 ?
Hamsat 24 Jul 17:40:02 17:43:36 28° 73° (ENE) 17:47:11 145.90 MHz
AO-7 24 Jul 17:48:39 17:55:35 29° 262° (W) 18:02:35 29.400 - 29.500 MHz
Saudisat 1A 24 Jul 17:51:32 17:55:34 34° 58° (ENE) 17:59:34 436.775 MHz
KITSAT 1 24 Jul 18:43:24 18:48:53 20° 257° (WSW) 18:54:22 435.175 FM
JAS-2 24 Jul 18:57:27 19:05:11 63° 259° (W) 19:12:48 435.800 - 435.900 CW/SSB, 435.910 FM
Hamsat 24 Jul 19:16:56 19:19:33 16° 265° (W) 19:22:11 145.90 MHz
Saudisat 1A 24 Jul 19:32:03 19:34:50 17° 251° (WSW) 19:37:36 436.775 MHz
STRAND 1 24 Jul 19:46:39 19:51:46 80° 284° (WNW) 19:56:51 ?
SO-67 24 Jul 19:50:15 19:53:29 38° 261° (W) 19:56:44 435.3500 MHz FM
HO-68 24 Jul 19:59:47 20:04:59 22° 63° (ENE) 20:10:10 435.675 MHz FM
UKube-1 24 Jul 21:08:27 21:12:35 44° 74° (ENE) 21:16:44 145.840 MHz, 145.915 MHz
HO-68 24 Jul 21:45:05 21:52:06 58° 258° (WSW) 21:59:10 435.675 MHz FM
RS-15 24 Jul 21:51:16 21:59:07 21° 42° (NE) 22:07:05 29.354 - 29.394 USB, Beacon 29.352 USB
Oscar 11 24 Jul 21:58:40 22:02:58 82° 77° (ENE) 22:07:16 145.825 FM, Beacon 2401.500 USB
FUNcube-1 24 Jul 22:07:24 22:11:21 32° 74° (ENE) 22:15:12 145.950 - 145.970 MHz USB
Lituanica SAT-1 24 Jul 22:29:24 22:31:01 19° 130° (SE) 22:32:38 437.275 MHz beacon
MaSat-1 24 Jul 22:32:29 22:36:01 47° 295° (WNW) 22:40:12 437.345 MHz
UKube-1 24 Jul 22:47:25 22:48:56 12° 266° (W) 22:50:26 145.840 MHz, 145.915 MHz
SO-50 24 Jul 23:12:41 23:17:28 77° 62° (ENE) 23:22:18 436.795 FM
ISS 24 Jul 23:30:12 23:31:55 14° 126° (SE) 23:33:39 145.800 FM
FUNcube-1 24 Jul 23:45:02 23:47:44 16° 265° (W) 23:50:24 145.950 - 145.970 MHz USB
UOSAT-12 25 Jul 00:00:36 00:03:34 16° 52° (NE) 00:06:31 437.025 FM, 437.400 FM
RS-15 25 Jul 00:01:57 00:13:08 85° 64° (ENE) 00:24:46 29.354 - 29.394 USB, Beacon 29.352 USB
PCSat 25 Jul 00:34:17 00:38:19 22° 106° (ESE) 00:42:22 145.825 MHz
ISS 25 Jul 01:05:14 01:08:21 36° 318° (NW) 01:11:29 145.800 FM
Oscar 16 25 Jul 01:11:27 01:13:28 12° 93° (E) 01:15:30 437.025 USB, Beacon 2401.1428
AO-40 25 Jul 01:12:56 03:36:19 22° 113° (ESE) 04:47:48 Beacon 2401.320
UOSAT-12 25 Jul 01:39:26 01:43:56 46° 247° (WSW) 01:48:20 437.025 FM, 437.400 FM
Sapphire 25 Jul 01:42:01 01:47:24 85° 294° (WNW) 01:52:50 437.095 MHz 1200 baud AX-25 AFSK
Uribyol 2 25 Jul 01:44:05 01:45:28 11° 93° (E) 01:46:51 436.500 FM
PCSat 25 Jul 02:16:26 02:21:25 37° 299° (WNW) 02:26:26 145.825 MHz
RS-15 25 Jul 02:17:15 02:24:11 19° 258° (WSW) 02:31:21 29.354 - 29.394 USB, Beacon 29.352 USB
Oscar 19 25 Jul 02:20:21 02:25:30 70° 102° (ESE) 02:30:39 437.125 CW, 437.150 USB
Oscar 16 25 Jul 02:48:01 02:53:04 57° 286° (WNW) 02:58:07 437.025 USB, Beacon 2401.1428
TMSAT-1 25 Jul 02:54:51 02:58:09 17° 94° (E) 03:01:26 436.925 FM
ITAMSAT 1 25 Jul 02:59:27 03:04:38 75° 102° (ESE) 03:09:47 435.822 SSB
OPAL 25 Jul 03:04:20 03:07:28 17° 66° (ENE) 03:10:36 ?
JAS-1B 25 Jul 03:04:48 03:13:48 51° 98° (E) 03:21:27 435.800 - 435.900 CW/SSB
AO-Echo 25 Jul 03:12:11 03:17:16 75° 284° (WNW) 03:22:09 ?
Gurwin Techsat 1B 25 Jul 03:14:55 03:19:53 40° 99° (E) 03:24:49 435.225 FM
AO-27 25 Jul 03:17:30 03:22:40 69° 285° (WNW) 03:27:47 436.795 MHz FM
Uribyol 2 25 Jul 03:20:09 03:25:14 62° 285° (WNW) 03:30:18 436.500 FM
Oscar 19 25 Jul 04:02:58 04:04:12 11° 295° (WNW) 04:05:26 437.125 CW, 437.150 USB
AO-7 25 Jul 04:03:58 04:10:08 23° 97° (E) 04:16:14 29.400 - 29.500 MHz
TMSAT-1 25 Jul 04:33:12 04:38:12 45° 287° (WNW) 04:43:12 436.925 FM
OPAL 25 Jul 04:41:19 04:45:59 41° 259° (WSW) 04:50:39 ?
PANSAT 25 Jul 04:49:35 04:50:35 11° 154° (SSE) 04:51:34 not established
Gurwin Techsat 1B 25 Jul 04:55:47 04:59:30 20° 292° (WNW) 05:03:12 435.225 FM
JAS-1B 25 Jul 04:55:47 05:03:42 32° 296° (WNW) 05:10:45 435.800 - 435.900 CW/SSB
Uosat F 25 Jul 05:05:08 05:10:10 79° 103° (ESE) 05:15:09 435.120 FM
KITSAT 1 25 Jul 05:17:07 05:21:13 15° 101° (ESE) 05:25:18 435.175 FM
Oscar 10/S400 25 Jul 05:49:28 07:19:20 43° 248° (WSW) 12:19:25 145.825 - 145.975 CW/USB, Beacon 145.810 USB
AO-7 25 Jul 05:55:04 06:03:14 62° 290° (WNW) 06:11:21 29.400 - 29.500 MHz
JAS-2 25 Jul 06:16:03 06:20:32 23° 94° (E) 06:24:42 435.800 - 435.900 CW/SSB, 435.910 FM
Lituanica SAT-1 25 Jul 06:18:57 06:19:43 11° 38° (NE) 06:20:30 437.275 MHz beacon
PANSAT 25 Jul 06:26:47 06:30:18 33° 164° (SSE) 06:33:48 not established
STRAND 1 25 Jul 06:56:49 07:01:57 82° 76° (ENE) 07:07:07 ?
MaSat-1 25 Jul 06:57:55 07:00:19 13° 55° (NE) 07:02:40 437.345 MHz
Hamsat 25 Jul 07:06:23 07:10:38 61° 284° (WNW) 07:14:53 145.90 MHz
KITSAT 1 25 Jul 07:07:29 07:15:36 84° 295° (WNW) 07:23:44 435.175 FM
SO-67 25 Jul 07:20:08 07:22:44 20° 96° (E) 07:25:20 435.3500 MHz FM
ISS 25 Jul 07:38:54 07:41:12 17° 36° (NE) 07:43:28 145.800 FM
Lituanica SAT-1 25 Jul 07:50:59 07:52:16 15° 231° (SW) 07:53:32 437.275 MHz beacon
Saudisat 1A 25 Jul 07:52:43 07:56:42 34° 112° (ESE) 08:00:42 436.775 MHz
JAS-2 25 Jul 08:00:24 08:05:43 35° 291° (WNW) 08:10:34 435.800 - 435.900 CW/SSB, 435.910 FM
PANSAT 25 Jul 08:06:28 08:10:17 62° 176° (S) 08:14:05 not established
MaSat-1 25 Jul 08:32:58 08:38:14 70° 251° (WSW) 08:43:07 437.345 MHz
SO-67 25 Jul 08:53:31 08:55:36 15° 288° (WNW) 08:57:41 435.3500 MHz FM
UKube-1 25 Jul 09:04:33 09:06:09 12° 94° (E) 09:07:44 145.840 MHz, 145.915 MHz
KITSAT 1 25 Jul 09:07:27 09:12:08 16° 314° (NW) 09:16:49 435.175 FM
ISS 25 Jul 09:14:53 09:17:59 35° 230° (SW) 09:21:04 145.800 FM
HO-68 25 Jul 09:19:12 09:25:44 38° 100° (E) 09:32:14 435.675 MHz FM
Saudisat 1A 25 Jul 09:33:13 09:36:20 19° 306° (NW) 09:39:27 436.775 MHz
PANSAT 25 Jul 09:46:35 09:50:21 53° 189° (S) 09:54:06 not established
Oscar 11 25 Jul 09:52:37 09:56:02 23° 96° (E) 09:59:27 145.825 FM, Beacon 2401.500 USB
Sapphire 25 Jul 10:36:25 10:40:45 24° 57° (ENE) 10:45:04 437.095 MHz 1200 baud AX-25 AFSK
UKube-1 25 Jul 10:38:22 10:42:29 42° 286° (WNW) 10:46:34 145.840 MHz, 145.915 MHz
HO-68 25 Jul 11:07:03 11:13:13 33° 293° (WNW) 11:19:22 435.675 MHz FM
PCSat 25 Jul 11:09:34 11:14:52 52° 63° (ENE) 11:20:07 145.825 MHz
PANSAT 25 Jul 11:27:10 11:30:14 23° 200° (SSW) 11:33:17 not established
Oscar 11 25 Jul 11:28:42 11:32:04 23° 289° (WNW) 11:35:27 145.825 FM, Beacon 2401.500 USB
FUNcube-1 25 Jul 11:38:00 11:42:02 50° 285° (WNW) 11:46:06 145.950 - 145.970 MHz USB
RS-15 25 Jul 12:10:58 12:17:51 19° 102° (ESE) 12:24:34 29.354 - 29.394 USB, Beacon 29.352 USB
Sapphire 25 Jul 12:19:17 12:24:11 36° 251° (WSW) 12:29:05 437.095 MHz 1200 baud AX-25 AFSK
Oscar 16 25 Jul 12:24:40 12:25:40 11° 65° (ENE) 12:26:39 437.025 USB, Beacon 2401.1428
PCSat 25 Jul 12:54:45 12:57:46 15° 256° (WSW) 13:00:46 145.825 MHz
Uribyol 2 25 Jul 12:57:47 12:58:39 10° 64° (ENE) 12:59:31 436.500 FM
SO-50 25 Jul 13:22:22 13:26:48 85° 297° (WNW) 13:31:19 436.795 FM
Oscar 19 25 Jul 13:31:43 13:36:41 56° 74° (ENE) 13:41:41 437.125 CW, 437.150 USB
